Location: Spruce Knob
(38.6995°N, 79.5330°W)
Time: 19:26:47
(UTC-04:00)

A-11 Canister half - Pass Details

Date: 03 February 2022
Orbit: 1513 x 1686 km, 47.2° (Epoch: 26 May)

Event Time Altitude Azimuth Distance (km) Brightness Sun altitude
Rises 12:36:40 0° 202° (SSW) 4,877 12.5 34.9°
Reaches altitude 10° 12:40:11 10° 194° (SSW) 3,871 12.5 34.9°
Maximum altitude 12:48:49 36° 132° (SE) 2,347 10.9 34.8°
Drops below altitude 10° 12:57:12 10° 70° (ENE) 3,762 10.9 34.6°
Sets 13:00:32 0° 63° (ENE) 4,725 11.3 34.5°
